Location: Andrest
(43.3200°N, 0.0641°E)
Time: 15:14:03
(UTC+00:00)

Cosmos 1812 - Pass Details

Date: 01 December 2020
Orbit: 517 x 520 km, 82.5° (Epoch: 23 January)

Event Time Altitude Azimuth Distance (km) Brightness Sun altitude
Rises 17:30:12 0° 155° (SSE) 2,626 6.2 -11.6°
Reaches altitude 10° 17:32:40 10° 139° (SE) 1,744 5.2 -12.0°
Maximum altitude 17:35:36 21° 89° (E) 1,190 3.9 -12.5°
Enters shadow 17:36:20 20° 72° (ENE) 1,233 3.9 -12.7°
